User: anonymous   Login
Location: Ełk
(53.8214°N, 22.3622°E)
Time: 04:56:47
(UTC+01:00)
Language:

ISS - Orbit

View from above orbital plane
View from above orbital plane
View from above satellite
View from above satellite

Ground track
Ground track

The orbit data is extracted from the following two-line orbital elements,

1 25544U 98067A   19322.65735962  .00016717  00000-0  10270-3 0  9063
2 25544  51.6414 315.4287 0006647 296.6817  63.3653 15.50008326 39216
Epoch (UTC): 18 November 2019 15:46:35
Eccentricity: 0.0006647
inclination: 51.6414°
perigee height: 412 km
apogee height: 421 km
right ascension of ascending node: 315.4287°
argument of perigee: 296.6817°
revolutions per day: 15.50008326
mean anomaly at epoch: 63.3653°
orbit number at epoch: 3921

The dashed part of the orbit path shows where the satellite is in the earth's shadow,  

DLR